TimeEST,TemperatureF,Dew PointF,Humidity,Sea Level PressureIn,VisibilityMPH,Wind Direction,Wind SpeedMPH,Gust SpeedMPH,PrecipitationIn,Events,Conditions,WindDirDegrees,DateUTC
12:53 AM,41.0,26.1,55,29.90,10.0,Variable,3.5,-,N/A,,Overcast,0,2013-02-05 05:53:00
1:53 AM,41.0,28.0,60,29.89,10.0,Calm,Calm,-,N/A,,Overcast,0,2013-02-05 06:53:00
2:32 AM,41.0,28.4,61,29.88,10.0,Variable,3.5,-,N/A,,Overcast,0,2013-02-05 07:32:00
2:53 AM,39.9,28.0,63,29.90,10.0,SW,4.6,-,0.00,,Overcast,230,2013-02-05 07:53:00
3:53 AM,41.0,33.1,73,29.88,10.0,Variable,5.8,-,N/A,,Overcast,0,2013-02-05 08:53:00
4:53 AM,41.0,32.0,70,29.88,10.0,SW,3.5,-,N/A,,Overcast,220,2013-02-05 09:53:00
5:53 AM,41.0,33.1,73,29.88,10.0,WSW,5.8,-,N/A,,Overcast,240,2013-02-05 10:53:00
6:53 AM,41.0,33.1,73,29.89,10.0,Calm,Calm,-,N/A,,Overcast,0,2013-02-05 11:53:00
7:53 AM,41.0,33.1,73,29.90,10.0,SW,3.5,-,N/A,,Overcast,230,2013-02-05 12:53:00
8:53 AM,42.1,32.0,67,29.92,10.0,WSW,8.1,-,N/A,,Overcast,240,2013-02-05 13:53:00
9:53 AM,42.1,33.1,70,29.94,10.0,Variable,5.8,-,0.00,Rain,Light Rain,0,2013-02-05 14:53:00
10:53 AM,44.6,35.6,71,29.93,10.0,Variable,6.9,-,N/A,,Overcast,0,2013-02-05 15:53:00
11:53 AM,46.0,36.0,68,29.94,10.0,Variable,5.8,20.7,N/A,,Overcast,0,2013-02-05 16:53:00
12:12 PM,46.4,35.6,66,29.93,10.0,WSW,8.1,-,N/A,,Mostly Cloudy,250,2013-02-05 17:12:00
12:53 PM,50.0,36.0,59,29.92,10.0,SW,9.2,18.4,N/A,,Mostly Cloudy,230,2013-02-05 17:53:00
1:53 PM,48.9,35.1,59,29.91,10.0,Variable,5.8,-,N/A,,Mostly Cloudy,0,2013-02-05 18:53:00
2:53 PM,51.1,35.1,54,29.90,10.0,WSW,8.1,-,N/A,,Mostly Cloudy,250,2013-02-05 19:53:00
3:53 PM,51.1,33.1,50,29.89,10.0,Variable,3.5,-,N/A,,Clear,0,2013-02-05 20:53:00
4:53 PM,50.0,32.0,50,29.89,10.0,Variable,3.5,-,N/A,,Mostly Cloudy,0,2013-02-05 21:53:00
5:53 PM,46.9,30.9,54,29.89,10.0,Calm,Calm,-,N/A,,Partly Cloudy,0,2013-02-05 22:53:00
6:53 PM,46.9,32.0,56,29.90,10.0,Variable,3.5,-,N/A,,Overcast,0,2013-02-05 23:53:00
7:53 PM,46.9,32.0,56,29.91,10.0,Variable,5.8,-,N/A,,Overcast,0,2013-02-06 00:53:00
8:53 PM,46.9,32.0,56,29.93,10.0,Variable,4.6,-,N/A,,Overcast,0,2013-02-06 01:53:00
9:53 PM,46.9,33.1,59,29.96,10.0,Variable,5.8,-,N/A,,Overcast,0,2013-02-06 02:53:00
10:53 PM,46.0,30.9,56,29.98,10.0,West,8.1,19.6,N/A,,Scattered Clouds,260,2013-02-06 03:53:00
11:53 PM,44.1,30.9,60,30.00,10.0,WNW,10.4,-,N/A,,Clear,290,2013-02-06 04:53:00